User: anonymous   Login
Location: Unspecified
(0.0000°N, 0.0000°E)
Time: 22:27:34
(UTC+02:00)
Language:

Cosmos 1943 Rocket - Orbit

View from above orbital plane
View from above orbital plane
View from above satellite
View from above satellite

Ground track
Ground track

The orbit data is extracted from the following two-line orbital elements,

1 19120U 88039B   18109.91120671 +.00000075 +00000-0 +58376-4 0  9992
2 19120 071.0167 036.8238 0019748 076.5864 283.7460 14.19181825549639
Epoch (UTC): 19 April 2018 21:52:08
Eccentricity: 0.0019748
inclination: 71.0167°
perigee height: 814 km
apogee height: 842 km
right ascension of ascending node: 36.8238°
argument of perigee: 76.5864°
revolutions per day: 14.19181825
mean anomaly at epoch: 283.7460°
orbit number at epoch: 54963

The dashed part of the orbit path shows where the satellite is in the earth's shadow,  

DLR